Regional Weather Roundup
Issued by NWS Sioux Falls, SD

Home | Current Version | Previous Version | Text Only | Print | Product List | Glossary On
Versions: 1 2 3 4 5 6 7 8 9 10 11 12 13 14 15 16 17 18 19 20 21 22 23 24 25 26 27 28 29 30 31 32 33 34 35 36 37 38 39 40 41 42 43 44 45 46 47 48 49 50
000
ASUS43 KFSD 290002
RWRFSD

WEATHER ROUNDUP FOR SE SOUTH DAKOTA/SW MINNESOTA/NW IOWA
NATIONAL WEATHER SERVICE SIOUX FALLS SD
600 PM CST SUN DEC 28 2014

NOTE: "FAIR" INDICATES FEW OR NO CLOUDS BELOW 12,000 FEET WITH NO
SIGNIFICANT WEATHER AND OR OBSTRUCTIONS TO VISIBILITY.


SDZ038>040-050-052>070-290100-
SOUTHEAST SOUTH DAKOTA

CITY           SKY/WX    TMP DP  RH WIND       PRES   REMARKS
CHAMBERLAIN    NOT AVBL
HURON          CLOUDY    17  13  84 E7        30.22R WCI   8
6HR MIN TEMP:  16; 6HR MAX TEMP:  20;

MADISON        CLOUDY    16  16 100 E13       30.17R WCI   2
MITCHELL       CLOUDY    21  18  88 E5        30.20R WCI  15
6HR MIN TEMP:  17; 6HR MAX TEMP:  22;

SIOUX FALLS    CLOUDY    20  17  88 NE12      30.18R WCI   8
6HR MIN TEMP:  13; 6HR MAX TEMP:  21;

WINNER         CLOUDY    19  15  84 E13       30.10R WCI   6
YANKTON        CLOUDY    18  14  86 NE8       30.19R WCI   7
$$

MNZ071-072-080-081-089-090-097-098-290100-
SOUTHWEST MINNESOTA

CITY           SKY/WX    TMP DP  RH WIND       PRES   REMARKS
FAIRMONT       CLOUDY    18  14  86 N9        30.19S WCI   6
JACKSON        CLOUDY    18  14  86 N7        30.19R FOG     WCI   8
LUVERNE        CLOUDY    23  19  86 NE8       30.18R WCI  14
MARSHALL       CLOUDY    16   9  73 N16       30.22S WCI   0
6HR MIN TEMP:  16; 6HR MAX TEMP:  21;

MONTEVIDEO     CLOUDY    16  10  79 N12       30.26S WCI   3
PIPESTONE      CLOUDY    18  18 100 NE10      30.16S WCI   6
REDWOOD FALLS  MOCLDY    22  16  78 N5        30.23R WCI  16
TRACY          CLOUDY    18  16  91 N13       30.21S WCI   5
WINDOM         CLOUDY    18  16  93 CALM      30.20R FOG
WORTHINGTON    CLOUDY    19 -26  12 NE16      30.17S WCI   5
$$

IAZ001>003-012>014-020>022-031-032-NEZ013-014-SDZ071-290100-
NORTHWEST IOWA

CITY           SKY/WX    TMP DP  RH WIND       PRES   REMARKS
CHEROKEE       CLOUDY    17  16  93 CALM      30.17R
DENISON        PTCLDY    23  21  93 NE7       30.13R WCI  15
ESTHERVILLE    FOG       16  15  96 N14       30.18R VSB 3/4 WCI   2
SIOUX CITY     CLOUDY    20  14  77 NE6       30.17R WCI  12
6HR MIN TEMP:  19; 6HR MAX TEMP:  26;

SPENCER        CLOUDY    20  15  81 NE13      30.17R WCI   7
6HR MIN TEMP:  20; 6HR MAX TEMP:  25;

$$

ABBREVIATIONS USED IN REMARKS
   TC - TEMPERATURE IN CELSIUS
  WCI - WIND CHILL INDEX
   HX - HEAT INDEX
  VSB - VISIBILITY



USA.gov is the U.S. government's official web portal to all federal, state and local government web resources and services.